Pomona, NJ

11:09 PM EDT on August 31, 2016 (GMT -0400)
Atlantic City International

Weather History for KACY - August, 2014

Change the Weather History Date:

Thursday, August 14, 2014

  Actual Average Record
Temperature  
Mean Temperature 70 °F 75 °F  
Max Temperature 79 °F 84 °F 98 °F (2016)
Min Temperature 60 °F 66 °F 50 °F (1983)
Degree Days  
Heating Degree Days 0 0  
Month to date heating degree days 0 0  
Since 1 June heating degree days 10 27  
Since 1 July heating degree days 0 0  
Cooling Degree Days 5 10  
Month to date cooling degree days 104 148  
Year to date cooling degree days 627 762  
Since 1 June cooling degree days 591 698  
Growing Degree Days 20 (Base 50)    
Moisture  
Dew Point 55 °F    
Average Humidity 59    
Maximum Humidity 78    
Minimum Humidity 39    
Precipitation  
Precipitation 0.00 in 0.14 in 7.33 in (1953)
Month to date precipitation 8.42 1.96  
Year to date precipitation 35.23 26.07  
Snow  
Snow 0.00 in 0.00 in 0.00 in (1903)
Month to date snowfall 0.0 0.0  
Since 1 June snowfall 0.0 0.0  
Since 1 July snowfall 0.0 0.0  
Snow Depth 0.00 in    
Sea Level Pressure  
Sea Level Pressure 29.88 in    
Wind  
Wind Speed 9 mph (West)    
Max Wind Speed 16 mph    
Max Gust Speed 22 mph    
Visibility 10 miles    
Events      
T = Trace of Precipitation, MM = Missing Value Source: NWS Daily Summary

Daily Weather History Graph

Daily Weather History Graph

Search for Another Location

Airport or City:

Trip Planner

Search our weather history database for the weather conditions in past years. The results will help you decide how hot, cold, wet, or windy it might be!

Date:

Astronomy

Aug. 14, 2014 Rise Set
Actual Time 6:09 AM EDT 7:55 PM EDT
Civil Twilight 5:41 AM EDT 8:24 PM EDT
Nautical Twilight 5:06 AM EDT 8:58 PM EDT
Astronomical Twilight 4:28 AM EDT 9:36 PM EDT
Moon 10:18 PM EDT (8/14) 10:42 AM EDT (8/14)
Length of Visible Light 14h 42m
Length of Day
13h 45m
Waning Gibbous, 79% of the Moon is Illuminated
Aug 14
Waning Gibbous
Aug 17
Last Quarter
Aug 25
New
Sep 2
First Quarter
Sep 8
Full

Hourly Weather History & Observations

Time (EDT) Temp. Dew Point Humidity Pressure Visibility Wind Dir Wind Speed Gust Speed Precip Events Conditions
12:54 AM 68.0 °F 59.0 °F 73% 29.83 in 10.0 mi WNW 9.2 mph - N/A   Clear
1:54 AM 66.0 °F 57.0 °F 73% 29.83 in 10.0 mi WNW 10.4 mph - N/A   Clear
2:54 AM 64.0 °F 57.9 °F 80% 29.84 in 10.0 mi WNW 10.4 mph - N/A   Clear
3:54 AM 62.1 °F 55.9 °F 80% 29.85 in 10.0 mi WNW 6.9 mph - N/A   Clear
4:54 AM 62.1 °F 54.0 °F 75% 29.86 in 10.0 mi West 6.9 mph - N/A   Clear
5:54 AM 60.1 °F 54.0 °F 80% 29.87 in 10.0 mi West 6.9 mph - N/A   Clear
6:54 AM 61.0 °F 53.1 °F 75% 29.89 in 10.0 mi WNW 6.9 mph - N/A   Clear
7:54 AM 64.0 °F 54.0 °F 70% 29.92 in 10.0 mi WNW 11.5 mph - N/A   Clear
8:54 AM 66.9 °F 54.0 °F 63% 29.92 in 10.0 mi WNW 11.5 mph - N/A   Clear
9:54 AM 70.0 °F 54.0 °F 57% 29.92 in 10.0 mi NW 8.1 mph - N/A   Clear
10:54 AM 72.0 °F 51.1 °F 48% 29.93 in 10.0 mi West 10.4 mph 16.1 mph N/A   Clear
11:54 AM 75.0 °F 50.0 °F 41% 29.93 in 10.0 mi WNW 11.5 mph - N/A   Clear
12:54 PM 75.9 °F 51.1 °F 42% 29.91 in 10.0 mi WNW 8.1 mph - N/A   Clear
1:54 PM 77.0 °F 50.0 °F 39% 29.90 in 10.0 mi West 11.5 mph - N/A   Clear
2:54 PM 78.1 °F 51.1 °F 39% 29.89 in 10.0 mi West 10.4 mph 21.9 mph N/A   Scattered Clouds
3:54 PM 78.1 °F 52.0 °F 40% 29.88 in 10.0 mi West 13.8 mph 17.3 mph N/A   Partly Cloudy
4:54 PM 77.0 °F 53.1 °F 43% 29.87 in 10.0 mi WSW 8.1 mph - N/A   Clear
5:54 PM 75.9 °F 53.1 °F 45% 29.86 in 10.0 mi WSW 12.7 mph - N/A   Clear
6:54 PM 75.0 °F 55.9 °F 51% 29.86 in 10.0 mi SSW 9.2 mph - N/A   Clear
7:54 PM 72.0 °F 57.9 °F 61% 29.86 in 10.0 mi South 4.6 mph - N/A   Clear
8:54 PM 70.0 °F 59.0 °F 68% 29.87 in 10.0 mi South 6.9 mph - N/A   Clear
9:54 PM 69.1 °F 60.1 °F 73% 29.88 in 10.0 mi SSW 8.1 mph - N/A   Clear
10:54 PM 66.9 °F 59.0 °F 76% 29.91 in 10.0 mi North 10.4 mph - N/A   Clear
11:54 PM 66.0 °F 59.0 °F 78% 29.91 in 10.0 mi Calm Calm - N/A   Scattered Clouds